Washington County, Wisconsin, United States
Lat: 43.37N, Lon: 88.22W
Wx Zone: WIZ059
Local Info
Past Weather Observations for Today

NOTE: This archive is for the closest National Weather Service station to Washington County. Information may differ from the station used for current weather conditions.

Click here for Long-term Archive

Time Weather Temperature Dewpoint Humidity Pressure Winds Precip Visibility
20:15
Overcast
55°F / 13°C 46°F / 8°C 72% 29.92 in
(1013 mb)
S 5.8 mph
(S 9 kph)
- 10SM
19:55
Overcast
55°F / 13°C 46°F / 8°C 72% 29.92 in
(1013 mb)
S 3.5 mph
(S 6 kph)
- 10SM
19:35
Overcast
55°F / 13°C 46°F / 8°C 72% 29.92 in
(1013 mb)
SSE 5.8 mph
(SSE 9 kph)
- 10SM
19:15
Overcast
55°F / 13°C 46°F / 8°C 72% 29.92 in
(1013 mb)
S 3.5 mph
(S 6 kph)
- 10SM
18:55
Overcast
55°F / 13°C 46°F / 8°C 72% 29.95 in
(1014 mb)
Calm - 10SM
18:35
Overcast
55°F / 13°C 45°F / 7°C 67% 29.95 in
(1014 mb)
SW 3.5 mph
(SW 6 kph)
- 10SM
18:15
Overcast
55°F / 13°C 45°F / 7°C 67% 29.95 in
(1014 mb)
Calm - 10SM
17:55
Overcast
55°F / 13°C 45°F / 7°C 67% 29.95 in
(1014 mb)
SW 3.5 mph
(SW 6 kph)
- 10SM
17:35
Overcast
55°F / 13°C 46°F / 8°C 72% 29.95 in
(1014 mb)
SSE 5.8 mph
(SSE 9 kph)
- 10SM
17:15
Mostly Cloudy
57°F / 14°C 46°F / 8°C 67% 29.95 in
(1014 mb)
Calm - 10SM
16:55
Mostly Cloudy
57°F / 14°C 46°F / 8°C 67% 29.92 in
(1013 mb)
Calm - 10SM
16:35
Partly Cloudy
57°F / 14°C 46°F / 8°C 67% 29.92 in
(1013 mb)
S 3.5 mph
(S 6 kph)
- 10SM
16:15
Clear
59°F / 15°C 46°F / 8°C 63% 29.92 in
(1013 mb)
S 4.6 mph
(S 7 kph)
- 10SM
15:55
Clear
61°F / 16°C 46°F / 8°C 59% 29.95 in
(1014 mb)
SSE 5.8 mph
(SSE 9 kph)
- 10SM
15:35
Clear
61°F / 16°C 46°F / 8°C 59% 29.95 in
(1014 mb)
SSE 5.8 mph
(SSE 9 kph)
- 10SM
15:15
Clear
61°F / 16°C 46°F / 8°C 59% 29.95 in
(1014 mb)
Calm - 10SM
14:55
Clear
61°F / 16°C 46°F / 8°C 59% 29.95 in
(1014 mb)
SSW 4.6 mph
(SSW 7 kph)
- 10SM
14:35
Clear
61°F / 16°C 48°F / 9°C 63% 29.95 in
(1014 mb)
SSW 4.6 mph
(SSW 7 kph)
- 10SM
14:15
Clear
59°F / 15°C 48°F / 9°C 68% 29.95 in
(1014 mb)
SSW 4.6 mph
(SSW 7 kph)
- 10SM
13:55
Clear
59°F / 15°C 48°F / 9°C 68% 29.95 in
(1014 mb)
SSW 4.6 mph
(SSW 7 kph)
- 10SM
13:35
Clear
59°F / 15°C 46°F / 8°C 63% 29.98 in
(1015 mb)
SW 6.9 mph
(SW 11 kph)
- 10SM
13:15
Clear
59°F / 15°C 46°F / 8°C 63% 29.98 in
(1015 mb)
SSW 6.9 mph
(SSW 11 kph)
- 10SM
12:55
Clear
57°F / 14°C 46°F / 8°C 67% 29.98 in
(1015 mb)
SSW 6.9 mph
(SSW 11 kph)
- 10SM
12:35
Clear
55°F / 13°C 46°F / 8°C 72% 29.98 in
(1015 mb)
SSW 4.6 mph
(SSW 7 kph)
- 10SM
12:15
Partly Cloudy
55°F / 13°C 46°F / 8°C 72% 30.01 in
(1016 mb)
SSW 5.8 mph
(SSW 9 kph)
- 10SM
11:55
Partly Cloudy
55°F / 13°C 48°F / 9°C 77% 30.01 in
(1016 mb)
SSW 5.8 mph
(SSW 9 kph)
- 10SM
11:35
Partly Cloudy
54°F / 12°C 46°F / 8°C 77% 30.01 in
(1016 mb)
SSW 3.5 mph
(SSW 6 kph)
- 10SM
11:15
Mostly Cloudy
54°F / 12°C 46°F / 8°C 77% 30.04 in
(1017 mb)
SSW 4.6 mph
(SSW 7 kph)
- 10SM
10:55
Mostly Cloudy
54°F / 12°C 46°F / 8°C 77% 30.04 in
(1017 mb)
SSW 5.8 mph
(SSW 9 kph)
- 10SM
10:35
Mostly Cloudy
52°F / 11°C 46°F / 8°C 82% 30.04 in
(1017 mb)
SW 4.6 mph
(SW 7 kph)
- 10SM
10:15
Overcast
50°F / 10°C 45°F / 7°C 82% 30.04 in
(1017 mb)
SSW 4.6 mph
(SSW 7 kph)
- 10SM
09:55
Overcast
50°F / 10°C 45°F / 7°C 82% 30.04 in
(1017 mb)
Calm - 10SM
09:35
Overcast
48°F / 9°C 45°F / 7°C 87% 30.04 in
(1017 mb)
Calm - 10SM
09:15
Overcast
48°F / 9°C 45°F / 7°C 87% 30.04 in
(1017 mb)
SSW 4.6 mph
(SSW 7 kph)
- 10SM
08:55
Overcast
46°F / 8°C 45°F / 7°C 93% 30.06 in
(1018 mb)
SW 3.5 mph
(SW 6 kph)
- 10SM
08:35
Overcast
46°F / 8°C 45°F / 7°C 93% 30.06 in
(1018 mb)
SSW 6.9 mph
(SSW 11 kph)
- 10SM
08:15
Overcast
Fog And Mist
46°F / 8°C 45°F / 7°C 93% 30.06 in
(1018 mb)
SSW 5.8 mph
(SSW 9 kph)
- 5SM
07:55
Overcast
Fog And Mist
46°F / 8°C 45°F / 7°C 93% 30.04 in
(1017 mb)
W 4.6 mph
(W 7 kph)
- 5SM
07:35
Overcast
Fog And Mist
46°F / 8°C 45°F / 7°C 93% 30.04 in
(1017 mb)
SSW 4.6 mph
(SSW 7 kph)
- 4SM
07:15
Overcast
Fog And Mist
46°F / 8°C 45°F / 7°C 93% 30.06 in
(1018 mb)
SSW 5.8 mph
(SSW 9 kph)
- 3SM
06:55
Overcast
Fog And Mist
46°F / 8°C 45°F / 7°C 93% 30.06 in
(1018 mb)
WNW 5.8 mph
(WNW 9 kph)
- 4SM
06:35
Overcast
Fog And Mist
46°F / 8°C 45°F / 7°C 93% 30.04 in
(1017 mb)
SSW 5.8 mph
(SSW 9 kph)
- 4SM
06:15
Overcast
Fog And Mist
46°F / 8°C 45°F / 7°C 93% 30.04 in
(1017 mb)
SSW 8.1 mph
(SSW 13 kph)
- 5SM
05:55
Overcast
Fog And Mist
46°F / 8°C 45°F / 7°C 93% 30.04 in
(1017 mb)
SSW 6.9 mph
(SSW 11 kph)
- 5SM
05:35
Overcast
Fog And Mist
46°F / 8°C 45°F / 7°C 93% 30.04 in
(1017 mb)
W 5.8 mph
(W 9 kph)
- 5SM
05:15
Overcast
Fog And Mist
46°F / 8°C 45°F / 7°C 93% 30.04 in
(1017 mb)
SSW 5.8 mph
(SSW 9 kph)
- 4SM
04:55
Overcast
Fog And Mist
46°F / 8°C 45°F / 7°C 93% 30.04 in
(1017 mb)
SSW 3.5 mph
(SSW 6 kph)
- 2 1/2SM
04:35
Overcast
Fog And Mist
46°F / 8°C 45°F / 7°C 93% 30.04 in
(1017 mb)
SSW 3.5 mph
(SSW 6 kph)
- 2 1/2SM
04:15
Overcast
Fog And Mist
46°F / 8°C 45°F / 7°C 93% 30.04 in
(1017 mb)
W 4.6 mph
(W 7 kph)
- 3SM
03:55
Overcast
Fog And Mist
46°F / 8°C 45°F / 7°C 93% 30.04 in
(1017 mb)
WNW 4.6 mph
(WNW 7 kph)
- 1 1/2SM
03:35
Overcast
Fog And Mist
48°F / 9°C 45°F / 7°C 87% 30.04 in
(1017 mb)
WNW 3.5 mph
(WNW 6 kph)
- 1 3/4SM
03:15
Overcast
Fog And Mist
48°F / 9°C 45°F / 7°C 87% 30.04 in
(1017 mb)
W 4.6 mph
(W 7 kph)
- 3SM
02:55
Overcast
Fog And Mist
48°F / 9°C 46°F / 8°C 94% 30.04 in
(1017 mb)
NW 3.5 mph
(NW 6 kph)
- 4SM
02:35
Overcast
Fog And Mist
48°F / 9°C 46°F / 8°C 94% 30.04 in
(1017 mb)
WNW 4.6 mph
(WNW 7 kph)
- 4SM
02:15
Overcast
Fog And Mist
48°F / 9°C 46°F / 8°C 94% 30.04 in
(1017 mb)
WNW 4.6 mph
(WNW 7 kph)
- 3SM
01:55
Overcast
Fog And Mist
50°F / 10°C 46°F / 8°C 88% 30.04 in
(1017 mb)
WNW 3.5 mph
(WNW 6 kph)
- 1 3/4SM
01:35
Overcast
Fog And Mist
50°F / 10°C 46°F / 8°C 88% 30.04 in
(1017 mb)
W 5.8 mph
(W 9 kph)
- 2SM
01:15
Overcast
Fog And Mist
50°F / 10°C 46°F / 8°C 88% 30.04 in
(1017 mb)
W 9.2 mph
(W 15 kph)
- 1 3/4SM
00:55
Overcast
Fog And Mist
50°F / 10°C 46°F / 8°C 88% 30.04 in
(1017 mb)
SSW 5.8 mph
(SSW 9 kph)
- 1 1/4SM
00:35
Overcast
Fog And Mist
50°F / 10°C 46°F / 8°C 88% 30.04 in
(1017 mb)
SW 5.8 mph
(SW 9 kph)
- 2 1/2SM
00:15
Overcast
Fog And Mist
50°F / 10°C 46°F / 8°C 88% 30.04 in
(1017 mb)
SSW 4.6 mph
(SSW 7 kph)
- 4SM
Time Weather Temperature Dewpoint Humidity Pressure Winds Precip Visibility


Weather for websites

WeatherForYou.com, LLC is not responsible for any damages or problems caused by this service. Current weather conditions are obtained from the closest station including government and personal stations which may have varying degrees of accuracy. Weather forecasts are derived from the NOAA NDFD. Like all things, this site belongs to Jesus Christ... He just trusts me to maintain it. If you have any questions or comments email webmaster@weatherforyou.com

Copyright © 2014, WeatherForYou.com LLC. All rights reserved.